This is the latest recevied weather packets stored in our database for station/object KA3BQE-13. If no packets are shown the sender has not sent any weather packets the latest 10 day(s).
| Time | Temp. | Humidity | Pressure | Rain* | Wind** | Luminosity | Snow |
|---|---|---|---|---|---|---|---|
| 1777809375 | 8.33° C | 72% | 1018.3 hPa | 0 mm | - | 68 W/m² | - |
| 1777809072 | 7.78° C | 74% | 1018.1 hPa | 0 mm | - | 68 W/m² | - |
| 1777808765 | 7.22° C | 76% | 1018.1 hPa | 0 mm | - | 50 W/m² | - |
| 1777808461 | 7.22° C | 75% | 1018.2 hPa | 0 mm | - | 36 W/m² | - |
| 1777808159 | 7.22° C | 74% | 1018.1 hPa | 0 mm | - | 28 W/m² | - |
| 1777807857 | 7.22° C | 75% | 1018 hPa | 0 mm | - | 28 W/m² | - |
| 1777807555 | 6.67° C | 76% | 1018.1 hPa | 0 mm | - | 29 W/m² | - |
| 1777807251 | 6.67° C | 76% | 1018.1 hPa | 0 mm | - | 23 W/m² | - |
| 1777806948 | 6.67° C | 76% | 1018.1 hPa | 0 mm | - | 17 W/m² | - |
| 1777806644 | 6.67° C | 76% | 1017.8 hPa | 0 mm | - | 13 W/m² | - |
| 1777806339 | 6.11° C | 77% | 1017.8 hPa | 0 mm | - | 9 W/m² | - |
| 1777806036 | 6.11° C | 77% | 1018 hPa | 0 mm | - | 6 W/m² | - |
| 1777805732 | 6.11° C | 76% | 1018.2 hPa | 0 mm | - | 4 W/m² | - |
| 1777805430 | 6.67° C | 76% | 1018.1 hPa | 0 mm | - | 2 W/m² | - |
| 1777805129 | 6.67° C | 76% | 1018.3 hPa | 0 mm | - | 1 W/m² | - |
| 1777804826 | 6.11° C | 76% | 1018.3 hPa | 0 mm | - | 0 W/m² | - |
| 1777804523 | 6.67° C | 75% | 1018.2 hPa | 0 mm | - | 0 W/m² | - |
| 1777804221 | 6.67° C | 74% | 1018 hPa | 0 mm | - | 0 W/m² | - |
| 1777803918 | 6.67° C | 74% | 1018.1 hPa | 0 mm | - | 0 W/m² | - |
| 1777803615 | 6.67° C | 75% | 1018 hPa | 0 mm | - | 0 W/m² | - |
| 1777803311 | 6.67° C | 74% | 1018.1 hPa | 0 mm | - | 0 W/m² | - |
| 1777803009 | 6.67° C | 74% | 1018.2 hPa | 0 mm | - | 0 W/m² | - |
| 1777802706 | 6.67° C | 74% | 1018.3 hPa | 0 mm | - | 0 W/m² | - |
| 1777802403 | 6.67° C | 74% | 1018.2 hPa | 0 mm | - | 0 W/m² | - |
| 1777802101 | 6.67° C | 74% | 1018.2 hPa | 0 mm | - | 0 W/m² | - |
* Rain latest hour (hover to see other rain measurements)
** Current wind speed in m/s (hover to see current wind gust speed)